Back to catalog

HAWK-2C

AliveScienceSSO
NORAD 47502·PAYLOAD·🇺🇸 United States

Launched Jan 24, 2021 from Cape Canaveral Space Force Station

Loading…

Next Passes (next 24 hours)

TLE

FreshSource: Space-Track

Epoch: Sep 14, 2026, 13:58 UTC

1 47502U 21006CT  26257.58217437  .00005046  00000-0  14792-3 0  9997
2 47502  97.2195 300.1299 0005267 229.4560 130.6226 15.35625431313210

Track HAWK-2C in real time with AllMySat

Download on the App Store